星链-5115 (STARLINK-5115 )

导读

STARLINK-5115是美国SpaceX公司星链(Starlink)星座中的一颗低轨通信卫星,于2022年10月5日发射升空,属于Starlink V1.0卫星平台。该卫星运行在近地轨道,近地点约482公里,远地点约484公里,轨道倾角43.0°,主要为全球提供高速低延迟卫星互联网服务,助力缩小数字鸿沟,也可为偏远地区、特殊场景提供通信支撑,单星设计使用寿命约5至7年,退役后会主动离轨再入大气层销毁。

基本信息
目录编号:
53989
目录名称:
STARLINK-5115
国际标识:
2022-125AB
轨道中心:
EARTH
卫星名称:
星链-5115
卫星全名:
星链-5115 (STARLINK-5115 )
卫星状态:
已陨落 最后检测时间 2024-12-29
发射日期:
2022-10-05 UTC
国别 :
美国 (US)
星等 :
--
轨道信息
数据来源 国际轨道数据
星历时间: 2024-12-29T13:52:35+0800
轨道信息已过期533天
半长轴: 6536.367km
偏心率: 0.0002387
轨道倾角: 53.192°
近地点辐角 161.392°
升交点赤经 348.063°
平近点角 280.306°
近地点: 156.671km
远地点: 159.793km
周期: 87.653分钟
每日圈数: 16.428509
详细信息
固有亮度:
5
最大亮度:
2.5
卫星平台:
Starlink v1.5
覆盖范围:
全球
运营商:
太空探索技术公司
运营商所在国:
美国
制造商(研发单位):
太空探索技术公司
制造商所在国:
美国
使用方式:
暂无
卫星简介
星链(Starlink)计划是由太空探索技术公司(SpaceX)提出的一个巨型低轨卫星互联网星座项目,计划在2019年至2024年间在太空搭建由约1.2万颗卫星组成的“星链”网络,其中1584颗将部署在地球上空550千米处的近地轨道,并从2020年开始工作。该卫星仍在工作。